Regional Weather Roundup
Issued by NWS

Home | Current Version | Previous Version | Text Only | Print | Product List | Glossary Off
Versions: 1 2 3 4 5 6 7 8 9 10 11 12 13 14 15 16 17 18 19 20 21 22 23 24 25 26 27 28 29 30 31 32 33 34 35 36 37 38 39 40 41 42 43 44 45 46 47 48 49 50

000
ASUS43 KDTX 101010
RWRMI
MICHIGAN HOURLY REGIONAL WEATHER ROUNDUP
NATIONAL WEATHER SERVICE DETROIT/PONTIAC MI
600 AM EDT THU JUL 10 2014

NOTE: "FAIR" INDICATES FEW OR NO CLOUDS BELOW 12,000 FEET WITH NO
SIGNIFICANT WEATHER AND/OR OBSTRUCTION TO VISIBILITY.

MIZ047>049-052>055-059>063-066>070-074>076-081>083-101100-
SOUTHEAST LOWER MICHIGAN

CITY           SKY/WX    TMP DP  RH WIND       PRES   REMARKS
ADRIAN         CLEAR     57  53  86 N6        30.09R
ALMA           MOCLDY    53  50  90 N5        30.13R
ANN ARBOR      CLOUDY    58  53  84 NW3       30.09R
BAD AXE        CLOUDY    55  54  94 CALM      30.11R
CARO           PTCLDY    57  57  99 N6        30.10R
DETROIT CITY   CLEAR     63  55  75 CALM      30.08R
DETROIT        MOCLDY    60  55  83 CALM      30.08R
FLINT          CLEAR     57  53  86 CALM      30.10R
GROSSE ILE     PTCLDY    61  57  88 CALM      30.06R
HILLSDALE      CLEAR     54  54  99 CALM      30.11R
HOWELL         CLEAR     54  53  96 CALM      30.10R

CITY           SKY/WX    TMP DP  RH WIND       PRES   REMARKS
JACKSON        CLEAR     54  51  90 CALM      30.10R
LAMBERTVILLE   MOCLDY    57  54  88 NW3       30.08R
LANSING        CLEAR     53  51  93 NW3       30.12R
LAPEER         FAIR      54  53  95 CALM      30.10R
MASON          CLEAR     52  51  96 CALM      30.11R
MONROE         CLEAR     55  55 100 CALM      30.06R
MT. CLEMENS    CLEAR     56  56  99 NW2       30.07R
PONTIAC        PTCLDY    58  55  90 CALM      30.08R
PORT HOPE        N/A     53  52  96 W3        30.09R
PORT HURON     FOG       52  52 100 CALM      30.09R VSB 3/4
TRI CITIES     CLEAR     56  51  84 N9        30.12R
TROY           PTCLDY    59  55  88 CALM      30.09R
SAGINAW HB     CLOUDY    59  55  88 N5        30.10R
$$
MIZ043>046-050>051-056>058-064>065-071>073-077>080-101100-
SOUTHWEST LOWER MICHIGAN

CITY           SKY/WX    TMP DP  RH WIND       PRES   REMARKS
BATTLE CREEK   CLEAR     55  51  86 N6        30.12R
BENTON HARBOR  CLEAR     52  51  97 CALM      30.12R
BIG RAPIDS     CLEAR     48  48 100 CALM      30.13R
COLDWATER      CLEAR     56  54  93 CALM      30.11R
FREMONT        FAIR      50  50 100 CALM      30.13R
HOLLAND        CLEAR     54  51  90 CALM      30.13R
GRAND RAPIDS   PTCLDY    56  53  90 CALM      30.13R
IONIA          FAIR      54  51  92 N3        30.11S
KALAMAZOO      CLEAR     53  51  93 N5        30.13R
LUDINGTON      CLEAR     46  45  97 CALM      30.14R FOG
MARSHALL       CLEAR     50  49  97 CALM      30.11R
MOUNT PLEASANT CLEAR     52  50  95 CALM      30.12R
MUSKEGON       CLEAR     55  51  86 CALM      30.14R FOG
SOUTH HAVEN    CLEAR     55  55 100 NE5       30.12S
$$
MIZ016>042-101100-
NORTHERN LOWER MICHIGAN

CITY           SKY/WX    TMP DP  RH WIND       PRES   REMARKS
ALPENA         MOCLDY    50  48  93 CALM      30.12R
BEAVER ISLAND  CLEAR     43  43 100 CALM      30.13R
BELLAIRE       MOCLDY    42  41  95 CALM      30.15R
CADILLAC       PTCLDY    42  40  95 CALM      30.13R
CHARLEVOIX     CLEAR     47  46  98 CALM      30.16R
FRANKFORT      PTCLDY    46  43  88 CALM      30.14R
GAYLORD        CLEAR     45  42  89 CALM      30.14R
GRAYLING       CLEAR     38  38 100 CALM      30.14R FOG
HARBOR SPRINGS CLEAR     46  45  97 CALM      30.13R
HOUGHTON LAKE  FOG       41  41 100 CALM      30.14R VSB 1/2
MANISTEE       CLOUDY    45  43  93 E3        30.14R VSB 1/4
OSCODA         CLEAR     48  47  94 CALM      30.12R
PELLSTON       CLEAR     40  39  97 CALM      30.13R
ROGERS CITY    MOCLDY    49  48  97 W5        30.13R
TRAVERSE CITY  CLEAR     48  46  93 CALM      30.13R
$$
MIZ007>008-015-101100-
EASTERN UPPER MICHIGAN

CITY           SKY/WX    TMP DP  RH WIND       PRES   REMARKS
KINROSS        CLEAR     43  41  93 CALM      30.12R
MACKINAC ISLAN CLEAR     48  47  97 W6        30.12R
NEWBERRY       CLEAR     41  41  98 W6        30.12R
S. S. MARIE    CLEAR     44  41  89 CALM      30.11R
MUNISING         N/A     47  42  83 S8        30.11R
$$
MIZ004>006-011>014-085-101100-
CENTRAL UPPER MICHIGAN

CITY           SKY/WX    TMP DP  RH WIND       PRES   REMARKS
MANISTIQUE     CLEAR     40  39  97 CALM      30.12R
ESCANABA       CLEAR     45  41  87 CALM      30.11R
MENOMINEE      CLEAR     48  46  93 CALM      30.11R
SAWYER-GWINN   CLEAR     43  40  90 CALM      30.12R
$$
MIZ001>003-009>011-084-101100-
WESTERN UPPER MICHIGAN

CITY           SKY/WX    TMP DP  RH WIND       PRES   REMARKS
IRON MOUNTAIN  CLEAR     42  40  92 CALM      30.12R
HOUGHTON       CLEAR     44  41  89 NW3       30.08R
COPPER HARBOR    N/A     53  45  74 W3        30.06R
$$

ABBREVIATIONS USED IN REMARKS
   TC - TEMPERATURE IN CELSIUS
  WCI - WIND CHILL INDEX
   HX - HEAT INDEX
  VSB - VISIBILITY



USA.gov is the U.S. government's official web portal to all federal, state and local government web resources and services.